TimeEDT,TemperatureF,Dew PointF,Humidity,Sea Level PressureIn,VisibilityMPH,Wind Direction,Wind SpeedMPH,Gust SpeedMPH,PrecipitationIn,Events,Conditions,WindDirDegrees,DateUTC
12:53 AM,75.0,61.0,62,30.02,10.0,ESE,8.1,-,N/A,,Clear,110,2012-03-30 04:53:00
1:53 AM,75.0,61.0,62,30.01,10.0,SE,6.9,-,N/A,,Clear,140,2012-03-30 05:53:00
2:53 AM,75.0,62.1,64,30.00,10.0,SE,9.2,-,N/A,,Partly Cloudy,130,2012-03-30 06:53:00
3:53 AM,73.9,63.0,68,29.99,10.0,ESE,6.9,-,N/A,,Partly Cloudy,120,2012-03-30 07:53:00
4:53 AM,73.9,62.1,66,29.99,10.0,SE,6.9,-,N/A,,Partly Cloudy,140,2012-03-30 08:53:00
5:53 AM,73.9,62.1,66,30.00,10.0,SE,5.8,-,N/A,,Partly Cloudy,140,2012-03-30 09:53:00
6:53 AM,73.9,62.1,66,30.02,10.0,ESE,5.8,-,N/A,,Scattered Clouds,110,2012-03-30 10:53:00
8:53 AM,78.1,63.0,60,30.05,10.0,Variable,6.9,-,N/A,,Partly Cloudy,0,2012-03-30 12:53:00
9:53 AM,80.1,63.0,56,30.07,10.0,ESE,5.8,-,N/A,,Partly Cloudy,110,2012-03-30 13:53:00
10:53 AM,82.0,64.0,54,30.07,10.0,ESE,6.9,-,N/A,,Partly Cloudy,120,2012-03-30 14:53:00
11:53 AM,82.0,63.0,52,30.06,10.0,ESE,5.8,-,N/A,,Partly Cloudy,120,2012-03-30 15:53:00
12:53 PM,84.0,63.0,49,30.05,10.0,ESE,9.2,-,N/A,,Clear,120,2012-03-30 16:53:00
1:53 PM,82.9,64.0,53,30.04,10.0,ESE,9.2,-,N/A,,Partly Cloudy,120,2012-03-30 17:53:00
2:53 PM,81.0,63.0,54,30.02,10.0,ESE,8.1,-,N/A,,Clear,110,2012-03-30 18:53:00
3:53 PM,80.1,63.0,56,30.01,10.0,ESE,8.1,-,N/A,,Clear,110,2012-03-30 19:53:00
4:53 PM,81.0,63.0,54,30.01,10.0,ESE,5.8,-,N/A,,Clear,110,2012-03-30 20:53:00
5:53 PM,81.0,63.0,54,30.01,10.0,Variable,4.6,-,N/A,,Clear,0,2012-03-30 21:53:00
6:53 PM,78.1,63.0,60,30.01,10.0,East,5.8,-,N/A,,Clear,100,2012-03-30 22:53:00
7:53 PM,77.0,63.0,62,30.01,10.0,East,6.9,-,N/A,,Clear,80,2012-03-30 23:53:00
8:53 PM,75.9,64.0,67,30.02,10.0,East,4.6,-,N/A,,Clear,90,2012-03-31 00:53:00
9:53 PM,75.9,64.0,67,30.03,10.0,Variable,5.8,-,N/A,,Clear,0,2012-03-31 01:53:00
10:53 PM,75.9,64.9,69,30.03,10.0,ESE,6.9,-,N/A,,Clear,110,2012-03-31 02:53:00
11:53 PM,77.0,64.9,66,30.04,10.0,SE,8.1,-,N/A,,Clear,130,2012-03-31 03:53:00